Year,Month,Day,Hour,Minute,Value (Times are PST for temperature in C)
2015,06,15,00,00,16.10
2015,06,15,00,01,16.00
2015,06,15,00,02,16.00
2015,06,15,00,03,16.00
2015,06,15,00,04,16.00
2015,06,15,00,05,15.90
2015,06,15,00,06,15.90
2015,06,15,00,07,15.90
2015,06,15,00,08,15.90
2015,06,15,00,09,15.80
2015,06,15,00,10,15.80
2015,06,15,00,11,15.80
2015,06,15,00,12,15.70
2015,06,15,00,13,15.70
2015,06,15,00,14,15.70
2015,06,15,00,15,15.60
2015,06,15,00,16,15.60
2015,06,15,00,17,15.60
2015,06,15,00,18,15.60
2015,06,15,00,19,15.50
2015,06,15,00,20,15.50
2015,06,15,00,21,15.40
2015,06,15,00,22,15.40
2015,06,15,00,23,15.40
2015,06,15,00,24,15.30
2015,06,15,00,25,15.30
2015,06,15,00,26,15.30
2015,06,15,00,27,15.30
2015,06,15,00,28,15.20
2015,06,15,00,29,15.20
2015,06,15,00,30,15.20
2015,06,15,00,31,15.20
2015,06,15,00,32,15.20
2015,06,15,00,33,15.20
2015,06,15,00,34,15.20
2015,06,15,00,35,15.20
2015,06,15,00,36,15.20
2015,06,15,00,37,15.20
2015,06,15,00,38,15.20
2015,06,15,00,39,15.20
2015,06,15,00,40,15.20
2015,06,15,00,41,15.20
2015,06,15,00,42,15.10
2015,06,15,00,43,15.10
2015,06,15,00,44,15.10
2015,06,15,00,45,15.10
2015,06,15,00,46,15.10
2015,06,15,00,47,15.00
2015,06,15,00,48,15.00
2015,06,15,00,49,14.90
2015,06,15,00,50,14.90
2015,06,15,00,51,14.80
2015,06,15,00,52,14.80
2015,06,15,00,53,14.70
2015,06,15,00,54,14.70
2015,06,15,00,55,14.60
2015,06,15,00,56,14.60
2015,06,15,00,57,14.60
2015,06,15,00,58,14.50
2015,06,15,00,59,14.50
2015,06,15,01,00,14.50
2015,06,15,01,01,14.40
2015,06,15,01,02,14.40
2015,06,15,01,03,14.40
2015,06,15,01,04,14.40
2015,06,15,01,05,14.40
2015,06,15,01,06,14.40
2015,06,15,01,07,14.40
2015,06,15,01,08,14.40
2015,06,15,01,09,14.40
2015,06,15,01,10,14.40
2015,06,15,01,11,14.40
2015,06,15,01,12,14.40
2015,06,15,01,13,14.30
2015,06,15,01,14,14.30
2015,06,15,01,15,14.30
2015,06,15,01,16,14.30
2015,06,15,01,17,14.30
2015,06,15,01,18,14.30
2015,06,15,01,19,14.30
2015,06,15,01,20,14.30
2015,06,15,01,21,14.30
2015,06,15,01,22,14.30
2015,06,15,01,23,14.30
2015,06,15,01,24,14.30
2015,06,15,01,25,14.30
2015,06,15,01,26,14.30
2015,06,15,01,27,14.30
2015,06,15,01,28,14.30
2015,06,15,01,29,14.30
2015,06,15,01,30,14.30
2015,06,15,01,31,14.20
2015,06,15,01,32,14.20
2015,06,15,01,33,14.20
2015,06,15,01,34,14.10
2015,06,15,01,35,14.10
2015,06,15,01,36,14.10
2015,06,15,01,37,14.10
2015,06,15,01,38,14.10
2015,06,15,01,39,14.10
2015,06,15,01,40,14.10
2015,06,15,01,41,14.00
2015,06,15,01,42,14.00
2015,06,15,01,43,14.00
2015,06,15,01,44,14.00
2015,06,15,01,45,13.90
2015,06,15,01,46,13.90
2015,06,15,01,47,13.90
2015,06,15,01,48,13.90
2015,06,15,01,49,13.90
2015,06,15,01,50,13.90
2015,06,15,01,51,13.90
2015,06,15,01,52,13.90
2015,06,15,01,53,13.90
2015,06,15,01,54,13.90
2015,06,15,01,55,13.90
2015,06,15,01,56,13.90
2015,06,15,01,57,13.80
2015,06,15,01,58,13.80
2015,06,15,01,59,13.80
2015,06,15,02,00,13.70
2015,06,15,02,01,13.70
2015,06,15,02,02,13.70
2015,06,15,02,03,13.70
2015,06,15,02,04,13.60
2015,06,15,02,05,13.60
2015,06,15,02,06,13.60
2015,06,15,02,07,13.60
2015,06,15,02,08,13.60
2015,06,15,02,09,13.60
2015,06,15,02,10,13.60
2015,06,15,02,11,13.60
2015,06,15,02,12,13.60
2015,06,15,02,13,13.60
2015,06,15,02,14,13.60
2015,06,15,02,15,13.60
2015,06,15,02,16,13.60
2015,06,15,02,17,13.60
2015,06,15,02,18,13.50
2015,06,15,02,19,13.50
2015,06,15,02,20,13.50
2015,06,15,02,21,13.50
2015,06,15,02,22,13.50
2015,06,15,02,23,13.50
2015,06,15,02,24,13.50
2015,06,15,02,25,13.50
2015,06,15,02,26,13.50
2015,06,15,02,27,13.50
2015,06,15,02,28,13.40
2015,06,15,02,29,13.40
2015,06,15,02,30,13.40
2015,06,15,02,31,13.40
2015,06,15,02,32,13.40
2015,06,15,02,33,13.40
2015,06,15,02,34,13.40
2015,06,15,02,35,13.40
2015,06,15,02,36,13.40
2015,06,15,02,37,13.50
2015,06,15,02,38,13.50
2015,06,15,02,39,13.50
2015,06,15,02,40,13.50
2015,06,15,02,41,13.50
2015,06,15,02,42,13.50
2015,06,15,02,43,13.40
2015,06,15,02,44,13.40
2015,06,15,02,45,13.30
2015,06,15,02,46,13.30
2015,06,15,02,47,13.30
2015,06,15,02,48,13.30
2015,06,15,02,49,13.30
2015,06,15,02,50,13.30
2015,06,15,02,51,13.30
2015,06,15,02,52,13.30
2015,06,15,02,53,13.30
2015,06,15,02,54,13.30
2015,06,15,02,55,13.40
2015,06,15,02,56,13.40
2015,06,15,02,57,13.40
2015,06,15,02,58,13.40
2015,06,15,02,59,13.40
2015,06,15,03,00,13.40
2015,06,15,03,01,13.50
2015,06,15,03,02,13.60
2015,06,15,03,03,13.60
2015,06,15,03,04,13.60
2015,06,15,03,05,13.60
2015,06,15,03,06,13.60
2015,06,15,03,07,13.70
2015,06,15,03,08,13.70
2015,06,15,03,09,13.70
2015,06,15,03,10,13.70
2015,06,15,03,11,13.70
2015,06,15,03,12,13.70
2015,06,15,03,13,13.70
2015,06,15,03,14,13.60
2015,06,15,03,15,13.60
2015,06,15,03,16,13.60
2015,06,15,03,17,13.60
2015,06,15,03,18,13.50
2015,06,15,03,19,13.50
2015,06,15,03,20,13.50
2015,06,15,03,21,13.40
2015,06,15,03,22,13.40
2015,06,15,03,23,13.40
2015,06,15,03,24,13.40
2015,06,15,03,25,13.40
2015,06,15,03,26,13.30
2015,06,15,03,27,13.30
2015,06,15,03,28,13.20
2015,06,15,03,29,13.20
2015,06,15,03,30,13.20
2015,06,15,03,31,13.10
2015,06,15,03,32,13.10
2015,06,15,03,33,13.00
2015,06,15,03,34,13.00
2015,06,15,03,35,12.90
2015,06,15,03,36,12.90
2015,06,15,03,37,12.90
2015,06,15,03,38,12.90
2015,06,15,03,39,12.80
2015,06,15,03,40,12.80
2015,06,15,03,41,12.80
2015,06,15,03,42,12.80
2015,06,15,03,43,12.80
2015,06,15,03,44,12.80
2015,06,15,03,45,12.80
2015,06,15,03,46,12.80
2015,06,15,03,47,12.80
2015,06,15,03,48,12.80
2015,06,15,03,49,12.70
2015,06,15,03,50,12.70
2015,06,15,03,51,12.70
2015,06,15,03,52,12.70
2015,06,15,03,53,12.70
2015,06,15,03,54,12.70
2015,06,15,03,55,12.70
2015,06,15,03,56,12.70
2015,06,15,03,57,12.70
2015,06,15,03,58,12.70
2015,06,15,03,59,12.70
2015,06,15,04,00,12.70
2015,06,15,04,01,12.70
2015,06,15,04,02,12.70
2015,06,15,04,03,12.70
2015,06,15,04,04,12.80
2015,06,15,04,05,12.80
2015,06,15,04,06,12.80
2015,06,15,04,07,12.80
2015,06,15,04,08,12.70
2015,06,15,04,09,12.70
2015,06,15,04,10,12.70
2015,06,15,04,11,12.70
2015,06,15,04,12,12.70
2015,06,15,04,13,12.70
2015,06,15,04,14,12.60
2015,06,15,04,15,12.60
2015,06,15,04,16,12.60
2015,06,15,04,17,12.60
2015,06,15,04,18,12.60
2015,06,15,04,19,12.50
2015,06,15,04,20,12.50
2015,06,15,04,21,12.50
2015,06,15,04,22,12.50
2015,06,15,04,23,12.50
2015,06,15,04,24,12.50
2015,06,15,04,25,12.50
2015,06,15,04,26,12.50
2015,06,15,04,27,12.50
2015,06,15,04,28,12.60
2015,06,15,04,29,12.60
2015,06,15,04,30,12.60
2015,06,15,04,31,12.60
2015,06,15,04,32,12.60
2015,06,15,04,33,12.50
2015,06,15,04,34,12.50
2015,06,15,04,35,12.50
2015,06,15,04,36,12.50
2015,06,15,04,37,12.40
2015,06,15,04,38,12.40
2015,06,15,04,39,12.40
2015,06,15,04,40,12.40
2015,06,15,04,41,12.30
2015,06,15,04,42,12.30
2015,06,15,04,43,12.30
2015,06,15,04,44,12.30
2015,06,15,04,45,12.20
2015,06,15,04,46,12.20
2015,06,15,04,47,12.20
2015,06,15,04,48,12.20
2015,06,15,04,49,12.10
2015,06,15,04,50,12.10
2015,06,15,04,51,12.10
2015,06,15,04,52,12.00
2015,06,15,04,53,12.00
2015,06,15,04,54,11.90
2015,06,15,04,55,11.90
2015,06,15,04,56,12.00
2015,06,15,04,57,12.00
2015,06,15,04,58,12.00
2015,06,15,04,59,12.00
2015,06,15,05,00,12.10
2015,06,15,05,01,12.10
2015,06,15,05,02,12.10
2015,06,15,05,03,12.10
2015,06,15,05,04,12.00
2015,06,15,05,05,12.00
2015,06,15,05,06,12.00
2015,06,15,05,07,12.00
2015,06,15,05,08,12.00
2015,06,15,05,09,12.00
2015,06,15,05,10,12.00
2015,06,15,05,11,12.00
2015,06,15,05,12,12.00
2015,06,15,05,13,12.00
2015,06,15,05,14,12.00
2015,06,15,05,15,12.00
2015,06,15,05,16,11.90
2015,06,15,05,17,12.00
2015,06,15,05,18,12.00
2015,06,15,05,19,12.00
2015,06,15,05,20,12.00
2015,06,15,05,21,12.10
2015,06,15,05,22,12.10
2015,06,15,05,23,12.10
2015,06,15,05,24,12.10
2015,06,15,05,25,12.10
2015,06,15,05,26,12.10
2015,06,15,05,27,12.10
2015,06,15,05,28,12.10
2015,06,15,05,29,12.10
2015,06,15,05,30,12.10
2015,06,15,05,31,12.10
2015,06,15,05,32,12.10
2015,06,15,05,33,12.10
2015,06,15,05,34,12.10
2015,06,15,05,35,12.10
2015,06,15,05,36,12.10
2015,06,15,05,37,12.10
2015,06,15,05,38,12.10
2015,06,15,05,39,12.10
2015,06,15,05,40,12.10
2015,06,15,05,41,12.10
2015,06,15,05,42,12.10
2015,06,15,05,43,12.10
2015,06,15,05,44,12.10
2015,06,15,05,45,12.10
2015,06,15,05,46,12.10
2015,06,15,05,47,12.10
2015,06,15,05,48,12.10
2015,06,15,05,49,12.20
2015,06,15,05,50,12.20
2015,06,15,05,51,12.20
2015,06,15,05,52,12.20
2015,06,15,05,53,12.20
2015,06,15,05,54,12.20
2015,06,15,05,55,12.20
2015,06,15,05,56,12.20
2015,06,15,05,57,12.20
2015,06,15,05,58,12.30
2015,06,15,05,59,12.30
2015,06,15,06,00,12.40
2015,06,15,06,01,12.50
2015,06,15,06,02,12.50
2015,06,15,06,03,12.60
2015,06,15,06,04,12.70
2015,06,15,06,05,12.80
2015,06,15,06,06,12.90
2015,06,15,06,07,13.00
2015,06,15,06,08,13.10
2015,06,15,06,09,13.10
2015,06,15,06,10,13.20
2015,06,15,06,11,13.20
2015,06,15,06,12,13.20
2015,06,15,06,13,13.20
2015,06,15,06,14,13.20
2015,06,15,06,15,13.20
2015,06,15,06,16,13.20
2015,06,15,06,17,13.20
2015,06,15,06,18,13.20
2015,06,15,06,19,13.20
2015,06,15,06,20,13.20
2015,06,15,06,21,13.20
2015,06,15,06,22,13.20
2015,06,15,06,23,13.20
2015,06,15,06,24,13.20
2015,06,15,06,25,13.20
2015,06,15,06,26,13.20
2015,06,15,06,27,13.20
2015,06,15,06,28,13.30
2015,06,15,06,29,13.30
2015,06,15,06,30,13.30
2015,06,15,06,31,13.30
2015,06,15,06,32,13.40
2015,06,15,06,33,13.40
2015,06,15,06,34,13.40
2015,06,15,06,35,13.50
2015,06,15,06,36,13.50
2015,06,15,06,37,13.60
2015,06,15,06,38,13.70
2015,06,15,06,39,13.70
2015,06,15,06,40,13.80
2015,06,15,06,41,13.90
2015,06,15,06,42,13.90
2015,06,15,06,43,14.00
2015,06,15,06,44,14.10
2015,06,15,06,45,14.20
2015,06,15,06,46,14.20
2015,06,15,06,47,14.30
2015,06,15,06,48,14.40
2015,06,15,06,49,14.40
2015,06,15,06,50,14.50
2015,06,15,06,51,14.60
2015,06,15,06,52,14.70
2015,06,15,06,53,14.80
2015,06,15,06,54,14.80
2015,06,15,06,55,14.90
2015,06,15,06,56,15.10
2015,06,15,06,57,15.20
2015,06,15,06,58,15.30
2015,06,15,06,59,15.40
2015,06,15,07,00,15.50
2015,06,15,07,01,15.70
2015,06,15,07,02,15.80
2015,06,15,07,03,16.00
2015,06,15,07,04,16.10
2015,06,15,07,05,16.10
2015,06,15,07,06,16.20
2015,06,15,07,07,16.30
2015,06,15,07,08,16.40
2015,06,15,07,09,16.40
2015,06,15,07,10,16.50
2015,06,15,07,11,16.60
2015,06,15,07,12,16.70
2015,06,15,07,13,16.80
2015,06,15,07,14,16.90
2015,06,15,07,15,16.90
2015,06,15,07,16,16.90
2015,06,15,07,17,17.00
2015,06,15,07,18,17.00
2015,06,15,07,19,17.10
2015,06,15,07,20,17.10
2015,06,15,07,21,17.10
2015,06,15,07,22,17.10
2015,06,15,07,23,17.10
2015,06,15,07,24,17.20
2015,06,15,07,25,17.20
2015,06,15,07,26,17.20
2015,06,15,07,27,17.20
2015,06,15,07,28,17.30
2015,06,15,07,29,17.30
2015,06,15,07,30,17.30
2015,06,15,07,31,17.30
2015,06,15,07,32,17.40
2015,06,15,07,33,17.50
2015,06,15,07,34,17.50
2015,06,15,07,35,17.60
2015,06,15,07,36,17.60
2015,06,15,07,37,17.60
2015,06,15,07,38,17.70
2015,06,15,07,39,17.70
2015,06,15,07,40,17.70
2015,06,15,07,41,17.80
2015,06,15,07,42,17.90
2015,06,15,07,43,18.00
2015,06,15,07,44,18.10
2015,06,15,07,45,18.10
2015,06,15,07,46,18.20
2015,06,15,07,47,18.30
2015,06,15,07,48,18.30
2015,06,15,07,49,18.40
2015,06,15,07,50,18.50
2015,06,15,07,51,18.60
2015,06,15,07,52,18.60
2015,06,15,07,53,18.70
2015,06,15,07,54,18.80
2015,06,15,07,55,18.80
2015,06,15,07,56,18.90
2015,06,15,07,57,19.00
2015,06,15,07,58,19.10
2015,06,15,07,59,19.10
2015,06,15,08,00,19.20
2015,06,15,08,01,19.30
2015,06,15,08,02,19.30
2015,06,15,08,03,19.30
2015,06,15,08,04,19.40
2015,06,15,08,05,19.50
2015,06,15,08,06,19.50
2015,06,15,08,07,19.60
2015,06,15,08,08,19.70
2015,06,15,08,09,19.70
2015,06,15,08,10,19.80
2015,06,15,08,11,19.80
2015,06,15,08,12,19.90
2015,06,15,08,13,19.90
2015,06,15,08,14,20.00
2015,06,15,08,15,20.00
2015,06,15,08,16,20.00
2015,06,15,08,17,20.00
2015,06,15,08,18,20.00
2015,06,15,08,19,20.00
2015,06,15,08,20,20.00
2015,06,15,08,21,19.90
2015,06,15,08,22,19.90
2015,06,15,08,23,19.90
2015,06,15,08,24,19.90
2015,06,15,08,25,19.90
2015,06,15,08,26,19.90
2015,06,15,08,27,20.00
2015,06,15,08,28,20.00
2015,06,15,08,29,20.00
2015,06,15,08,30,20.10
2015,06,15,08,31,20.10
2015,06,15,08,32,20.10
2015,06,15,08,33,20.10
2015,06,15,08,34,20.10
2015,06,15,08,35,20.20
2015,06,15,08,36,20.20
2015,06,15,08,37,20.20
2015,06,15,08,38,20.20
2015,06,15,08,39,20.30
2015,06,15,08,40,20.40
2015,06,15,08,41,20.40
2015,06,15,08,42,20.50
2015,06,15,08,43,20.50
2015,06,15,08,44,20.50
2015,06,15,08,45,20.50
2015,06,15,08,46,20.50
2015,06,15,08,47,20.50
2015,06,15,08,48,20.50
2015,06,15,08,49,20.50
2015,06,15,08,50,20.50
2015,06,15,08,51,20.50
2015,06,15,08,52,20.60
2015,06,15,08,53,20.60
2015,06,15,08,54,20.60
2015,06,15,08,55,20.60
2015,06,15,08,56,20.60
2015,06,15,08,57,20.70
2015,06,15,08,58,20.80
2015,06,15,08,59,20.80
2015,06,15,09,00,20.80
2015,06,15,09,01,20.90
2015,06,15,09,02,20.90
2015,06,15,09,03,21.00
2015,06,15,09,04,21.00
2015,06,15,09,05,21.10
2015,06,15,09,06,21.10
2015,06,15,09,07,21.10
2015,06,15,09,08,21.20
2015,06,15,09,09,21.20
2015,06,15,09,10,21.30
2015,06,15,09,11,21.30
2015,06,15,09,12,21.40
2015,06,15,09,13,21.50
2015,06,15,09,14,21.50
2015,06,15,09,15,21.60
2015,06,15,09,16,21.70
2015,06,15,09,17,21.70
2015,06,15,09,18,21.70
2015,06,15,09,19,21.70
2015,06,15,09,20,21.80
2015,06,15,09,21,21.80
2015,06,15,09,22,21.80
2015,06,15,09,23,21.80
2015,06,15,09,24,21.90
2015,06,15,09,25,21.90
2015,06,15,09,26,22.00
2015,06,15,09,27,22.10
2015,06,15,09,28,22.10
2015,06,15,09,29,22.20
2015,06,15,09,30,22.20
2015,06,15,09,31,22.20
2015,06,15,09,32,22.20
2015,06,15,09,33,22.20
2015,06,15,09,34,22.30
2015,06,15,09,35,22.30
2015,06,15,09,36,22.40
2015,06,15,09,37,22.40
2015,06,15,09,38,22.50
2015,06,15,09,39,22.60
2015,06,15,09,40,22.60
2015,06,15,09,41,22.70
2015,06,15,09,42,22.70
2015,06,15,09,43,22.70
2015,06,15,09,44,22.70
2015,06,15,09,45,22.70
2015,06,15,09,46,22.80
2015,06,15,09,47,22.80
2015,06,15,09,48,22.80
2015,06,15,09,49,22.80
2015,06,15,09,50,22.80
2015,06,15,09,51,22.80
2015,06,15,09,52,22.80
2015,06,15,09,53,22.80
2015,06,15,09,54,22.80
2015,06,15,09,55,22.80
2015,06,15,09,56,22.90
2015,06,15,09,57,23.00
2015,06,15,09,58,23.00
2015,06,15,09,59,23.10
2015,06,15,10,00,23.10
2015,06,15,10,01,23.10
2015,06,15,10,02,23.20
2015,06,15,10,03,23.20
2015,06,15,10,04,23.30
2015,06,15,10,05,23.30
2015,06,15,10,06,23.30
2015,06,15,10,07,23.30
2015,06,15,10,08,23.20
2015,06,15,10,09,23.20
2015,06,15,10,10,23.10
2015,06,15,10,11,23.00
2015,06,15,10,12,23.00
2015,06,15,10,13,22.90
2015,06,15,10,14,22.90
2015,06,15,10,15,22.80
2015,06,15,10,16,22.80
2015,06,15,10,17,22.80
2015,06,15,10,18,22.80
2015,06,15,10,19,22.80
2015,06,15,10,20,22.90
2015,06,15,10,21,23.00
2015,06,15,10,22,23.00
2015,06,15,10,23,23.00
2015,06,15,10,24,23.10
2015,06,15,10,25,23.10
2015,06,15,10,26,23.10
2015,06,15,10,27,23.20
2015,06,15,10,28,23.30
2015,06,15,10,29,23.30
2015,06,15,10,30,23.40
2015,06,15,10,31,23.50
2015,06,15,10,32,23.60
2015,06,15,10,33,23.60
2015,06,15,10,34,23.60
2015,06,15,10,35,23.70
2015,06,15,10,36,23.70
2015,06,15,10,37,23.70
2015,06,15,10,38,23.80
2015,06,15,10,39,23.80
2015,06,15,10,40,23.90
2015,06,15,10,41,23.90
2015,06,15,10,42,24.00
2015,06,15,10,43,24.00
2015,06,15,10,44,24.10
2015,06,15,10,45,24.30
2015,06,15,10,46,24.30
2015,06,15,10,47,24.40
2015,06,15,10,48,24.50
2015,06,15,10,49,24.50
2015,06,15,10,50,24.60
2015,06,15,10,51,24.60
2015,06,15,10,52,24.60
2015,06,15,10,53,24.70
2015,06,15,10,54,24.70
2015,06,15,10,55,24.70
2015,06,15,10,56,24.60
2015,06,15,10,57,24.70
2015,06,15,10,58,24.70
2015,06,15,10,59,24.70
2015,06,15,11,00,24.70
2015,06,15,11,01,24.60
2015,06,15,11,02,24.60
2015,06,15,11,03,24.50
2015,06,15,11,04,24.40
2015,06,15,11,05,24.40
2015,06,15,11,06,24.40
2015,06,15,11,07,24.40
2015,06,15,11,08,24.50
2015,06,15,11,09,24.50
2015,06,15,11,10,24.50
2015,06,15,11,11,24.50
2015,06,15,11,12,24.60
2015,06,15,11,13,24.60
2015,06,15,11,14,24.70
2015,06,15,11,15,24.70
2015,06,15,11,16,24.70
2015,06,15,11,17,24.80
2015,06,15,11,18,24.70
2015,06,15,11,19,24.70
2015,06,15,11,20,24.80
2015,06,15,11,21,24.80
2015,06,15,11,22,24.90
2015,06,15,11,23,25.00
2015,06,15,11,24,25.00
2015,06,15,11,25,25.10
2015,06,15,11,26,25.20
2015,06,15,11,27,25.30
2015,06,15,11,28,25.40
2015,06,15,11,29,25.40
2015,06,15,11,30,25.50
2015,06,15,11,31,25.50
2015,06,15,11,32,25.50
2015,06,15,11,33,25.50
2015,06,15,11,34,25.50
2015,06,15,11,35,25.50
2015,06,15,11,36,25.50
2015,06,15,11,37,25.50
2015,06,15,11,38,25.50
2015,06,15,11,39,25.50
2015,06,15,11,40,25.60
2015,06,15,11,41,25.60
2015,06,15,11,42,25.60
2015,06,15,11,43,25.60
2015,06,15,11,44,25.70
2015,06,15,11,45,25.70
2015,06,15,11,46,25.70
2015,06,15,11,47,25.70
2015,06,15,11,48,25.60
2015,06,15,11,49,25.60
2015,06,15,11,50,25.50
2015,06,15,11,51,25.60
2015,06,15,11,52,25.60
2015,06,15,11,53,25.70
2015,06,15,11,54,25.80
2015,06,15,11,55,25.90
2015,06,15,11,56,25.90
2015,06,15,11,57,25.90
2015,06,15,11,58,25.70
2015,06,15,11,59,25.60
2015,06,15,12,00,25.40
2015,06,15,12,01,25.20
2015,06,15,12,02,25.10
2015,06,15,12,03,25.10
2015,06,15,12,04,25.10
2015,06,15,12,05,25.20
2015,06,15,12,06,25.20
2015,06,15,12,07,25.20
2015,06,15,12,08,25.20
2015,06,15,12,09,25.20
2015,06,15,12,10,25.20
2015,06,15,12,11,25.20
2015,06,15,12,12,25.30
2015,06,15,12,13,25.40
2015,06,15,12,14,25.50
2015,06,15,12,15,25.60
2015,06,15,12,16,25.50
2015,06,15,12,17,25.40
2015,06,15,12,18,25.40
2015,06,15,12,19,25.40
2015,06,15,12,20,25.50
2015,06,15,12,21,25.60
2015,06,15,12,22,25.60
2015,06,15,12,23,25.50
2015,06,15,12,24,25.50
2015,06,15,12,25,25.40
2015,06,15,12,26,25.50
2015,06,15,12,27,25.60
2015,06,15,12,28,25.70
2015,06,15,12,29,25.70
2015,06,15,12,30,25.80
2015,06,15,12,31,25.90
2015,06,15,12,32,25.90
2015,06,15,12,33,25.90
2015,06,15,12,34,25.90
2015,06,15,12,35,25.80
2015,06,15,12,36,25.70
2015,06,15,12,37,25.50
2015,06,15,12,38,25.30
2015,06,15,12,39,25.10
2015,06,15,12,40,24.90
2015,06,15,12,41,24.80
2015,06,15,12,42,24.80
2015,06,15,12,43,24.90
2015,06,15,12,44,25.00
2015,06,15,12,45,25.10
2015,06,15,12,46,25.20
2015,06,15,12,47,25.30
2015,06,15,12,48,25.30
2015,06,15,12,49,25.20
2015,06,15,12,50,25.10
2015,06,15,12,51,25.10
2015,06,15,12,52,25.10
2015,06,15,12,53,25.00
2015,06,15,12,54,24.90
2015,06,15,12,55,25.00
2015,06,15,12,56,24.90
2015,06,15,12,57,24.90
2015,06,15,12,58,25.00
2015,06,15,12,59,25.10
2015,06,15,13,00,25.20
2015,06,15,13,01,25.20
2015,06,15,13,02,25.20
2015,06,15,13,03,25.10
2015,06,15,13,04,25.10
2015,06,15,13,05,24.90
2015,06,15,13,06,24.80
2015,06,15,13,07,24.80
2015,06,15,13,08,24.80
2015,06,15,13,09,24.80
2015,06,15,13,10,24.80
2015,06,15,13,11,24.90
2015,06,15,13,12,24.90
2015,06,15,13,13,25.00
2015,06,15,13,14,25.10
2015,06,15,13,15,25.20
2015,06,15,13,16,25.30
2015,06,15,13,17,25.40
2015,06,15,13,18,25.50
2015,06,15,13,19,25.60
2015,06,15,13,20,25.60
2015,06,15,13,21,25.60
2015,06,15,13,22,25.50
2015,06,15,13,23,25.50
2015,06,15,13,24,25.50
2015,06,15,13,25,25.60
2015,06,15,13,26,25.70
2015,06,15,13,27,25.50
2015,06,15,13,28,25.30
2015,06,15,13,29,25.10
2015,06,15,13,30,24.90
2015,06,15,13,31,24.80
2015,06,15,13,32,24.80
2015,06,15,13,33,24.80
2015,06,15,13,34,24.80
2015,06,15,13,35,24.60
2015,06,15,13,36,24.40
2015,06,15,13,37,24.30
2015,06,15,13,38,24.30
2015,06,15,13,39,24.30
2015,06,15,13,40,24.30
2015,06,15,13,41,24.30
2015,06,15,13,42,24.40
2015,06,15,13,43,24.40
2015,06,15,13,44,24.50
2015,06,15,13,45,24.60
2015,06,15,13,46,24.80
2015,06,15,13,47,24.90
2015,06,15,13,48,25.00
2015,06,15,13,49,25.10
2015,06,15,13,50,25.10
2015,06,15,13,51,25.10
2015,06,15,13,52,25.10
2015,06,15,13,53,25.10
2015,06,15,13,54,25.10
2015,06,15,13,55,25.20
2015,06,15,13,56,25.20
2015,06,15,13,57,25.20
2015,06,15,13,58,25.10
2015,06,15,13,59,25.00
2015,06,15,14,00,24.80
2015,06,15,14,01,24.70
2015,06,15,14,02,24.70
2015,06,15,14,03,24.70
2015,06,15,14,04,24.70
2015,06,15,14,05,24.60
2015,06,15,14,06,24.50
2015,06,15,14,07,24.40
2015,06,15,14,08,24.30
2015,06,15,14,09,24.20
2015,06,15,14,10,24.20
2015,06,15,14,11,24.20
2015,06,15,14,12,24.30
2015,06,15,14,13,24.30
2015,06,15,14,14,24.40
2015,06,15,14,15,24.50
2015,06,15,14,16,24.50
2015,06,15,14,17,24.50
2015,06,15,14,18,24.60
2015,06,15,14,19,24.70
2015,06,15,14,20,24.70
2015,06,15,14,21,24.80
2015,06,15,14,22,24.90
2015,06,15,14,23,24.90
2015,06,15,14,24,24.90
2015,06,15,14,25,24.90
2015,06,15,14,26,24.80
2015,06,15,14,27,24.70
2015,06,15,14,28,24.60
2015,06,15,14,29,24.40
2015,06,15,14,30,24.30
2015,06,15,14,31,24.30
2015,06,15,14,32,24.40
2015,06,15,14,33,24.50
2015,06,15,14,34,24.60
2015,06,15,14,35,24.70
2015,06,15,14,36,24.80
2015,06,15,14,37,24.90
2015,06,15,14,38,24.90
2015,06,15,14,39,24.80
2015,06,15,14,40,24.80
2015,06,15,14,41,24.80
2015,06,15,14,42,24.80
2015,06,15,14,43,24.80
2015,06,15,14,44,24.70
2015,06,15,14,45,24.50
2015,06,15,14,46,24.40
2015,06,15,14,47,24.40
2015,06,15,14,48,24.40
2015,06,15,14,49,24.30
2015,06,15,14,50,24.30
2015,06,15,14,51,24.30
2015,06,15,14,52,24.20
2015,06,15,14,53,24.20
2015,06,15,14,54,24.30
2015,06,15,14,55,24.50
2015,06,15,14,56,24.60
2015,06,15,14,57,24.70
2015,06,15,14,58,24.60
2015,06,15,14,59,24.60
2015,06,15,15,00,24.60
2015,06,15,15,01,24.70
2015,06,15,15,02,24.80
2015,06,15,15,03,24.90
2015,06,15,15,04,25.00
2015,06,15,15,05,25.20
2015,06,15,15,06,25.30
2015,06,15,15,07,25.40
2015,06,15,15,08,25.50
2015,06,15,15,09,25.50
2015,06,15,15,10,25.50
2015,06,15,15,11,25.50
2015,06,15,15,12,25.60
2015,06,15,15,13,25.60
2015,06,15,15,14,25.70
2015,06,15,15,15,25.80
2015,06,15,15,16,25.80
2015,06,15,15,17,25.90
2015,06,15,15,18,26.00
2015,06,15,15,19,26.10
2015,06,15,15,20,26.10
2015,06,15,15,21,26.00
2015,06,15,15,22,26.00
2015,06,15,15,23,25.90
2015,06,15,15,24,25.70
2015,06,15,15,25,25.60
2015,06,15,15,26,25.60
2015,06,15,15,27,25.60
2015,06,15,15,28,25.70
2015,06,15,15,29,25.80
2015,06,15,15,30,25.90
2015,06,15,15,31,25.90
2015,06,15,15,32,26.00
2015,06,15,15,33,26.10
2015,06,15,15,34,26.20
2015,06,15,15,35,26.20
2015,06,15,15,36,26.10
2015,06,15,15,37,26.10
2015,06,15,15,38,26.20
2015,06,15,15,39,26.20
2015,06,15,15,40,26.20
2015,06,15,15,41,26.30
2015,06,15,15,42,26.30
2015,06,15,15,43,26.30
2015,06,15,15,44,26.20
2015,06,15,15,45,26.20
2015,06,15,15,46,26.10
2015,06,15,15,47,26.00
2015,06,15,15,48,25.80
2015,06,15,15,49,25.60
2015,06,15,15,50,25.30
2015,06,15,15,51,25.10
2015,06,15,15,52,24.80
2015,06,15,15,53,24.60
2015,06,15,15,54,24.40
2015,06,15,15,55,24.30
2015,06,15,15,56,24.30
2015,06,15,15,57,24.40
2015,06,15,15,58,24.50
2015,06,15,15,59,24.60
2015,06,15,16,00,24.50
2015,06,15,16,01,24.50
2015,06,15,16,02,24.40
2015,06,15,16,03,24.40
2015,06,15,16,04,24.40
2015,06,15,16,05,24.50
2015,06,15,16,06,24.60
2015,06,15,16,07,24.70
2015,06,15,16,08,24.70
2015,06,15,16,09,24.70
2015,06,15,16,10,24.70
2015,06,15,16,11,24.70
2015,06,15,16,12,24.80
2015,06,15,16,13,24.70
2015,06,15,16,14,24.70
2015,06,15,16,15,24.60
2015,06,15,16,16,24.50
2015,06,15,16,17,24.50
2015,06,15,16,18,24.50
2015,06,15,16,19,24.50
2015,06,15,16,20,24.50
2015,06,15,16,21,24.50
2015,06,15,16,22,24.50
2015,06,15,16,23,24.50
2015,06,15,16,24,24.60
2015,06,15,16,25,24.70
2015,06,15,16,26,24.80
2015,06,15,16,27,24.90
2015,06,15,16,28,25.00
2015,06,15,16,29,25.20
2015,06,15,16,30,25.30
2015,06,15,16,31,25.40
2015,06,15,16,32,25.50
2015,06,15,16,33,25.60
2015,06,15,16,34,25.70
2015,06,15,16,35,25.70
2015,06,15,16,36,25.80
2015,06,15,16,37,25.70
2015,06,15,16,38,25.70
2015,06,15,16,39,25.50
2015,06,15,16,40,25.40
2015,06,15,16,41,25.40
2015,06,15,16,42,25.40
2015,06,15,16,43,25.40
2015,06,15,16,44,25.30
2015,06,15,16,45,25.20
2015,06,15,16,46,25.20
2015,06,15,16,47,25.20
2015,06,15,16,48,25.20
2015,06,15,16,49,25.30
2015,06,15,16,50,25.40
2015,06,15,16,51,25.40
2015,06,15,16,52,25.50
2015,06,15,16,53,25.50
2015,06,15,16,54,25.60
2015,06,15,16,55,25.70
2015,06,15,16,56,25.80
2015,06,15,16,57,25.90
2015,06,15,16,58,25.80
2015,06,15,16,59,25.80
2015,06,15,17,00,25.70
2015,06,15,17,01,25.70
2015,06,15,17,02,25.70
2015,06,15,17,03,25.70
2015,06,15,17,04,25.80
2015,06,15,17,05,25.80
2015,06,15,17,06,25.80
2015,06,15,17,07,25.80
2015,06,15,17,08,25.80
2015,06,15,17,09,25.60
2015,06,15,17,10,25.50
2015,06,15,17,11,25.50
2015,06,15,17,12,25.40
2015,06,15,17,13,25.50
2015,06,15,17,14,25.50
2015,06,15,17,15,25.60
2015,06,15,17,16,25.70
2015,06,15,17,17,25.80
2015,06,15,17,18,25.80
2015,06,15,17,19,25.80